,,PressureMeas_1m,,PRMeasQMR101_1,,RHStat155_1m_1,,SRMeasQMS101R_1m,,TAStat155_1m_1,,GenWind_1,,GenWind_1,
2017-09-17, 07:00:06,VALID,918.296,VALID,0.0,VALID,96.605,VALID,167.478,VALID,19.269,VALID,54.0,VALID,0.499,
2017-09-17, 07:01:06,VALID,918.312,VALID,0.0,VALID,96.243,VALID,171.815,VALID,19.424,VALID,52.0,VALID,0.65,
2017-09-17, 07:02:06,VALID,918.326,VALID,0.0,VALID,95.847,VALID,174.48,VALID,19.567,VALID,52.0,VALID,0.184,
2017-09-17, 07:03:06,VALID,918.336,VALID,0.0,VALID,95.212,VALID,176.902,VALID,19.723,VALID,52.0,VALID,0.044,
2017-09-17, 07:04:06,VALID,918.355,VALID,0.0,VALID,94.564,VALID,182.267,VALID,19.906,VALID,66.0,VALID,0.223,
2017-09-17, 07:05:06,VALID,918.381,VALID,0.0,VALID,93.774,VALID,191.248,VALID,20.052,VALID,66.0,VALID,0.207,
2017-09-17, 07:06:06,VALID,918.396,VALID,0.0,VALID,93.239,VALID,199.213,VALID,20.187,VALID,66.0,VALID,0.125,
2017-09-17, 07:07:06,VALID,918.429,VALID,0.0,VALID,92.851,VALID,204.274,VALID,20.313,VALID,66.0,VALID,0.03,
2017-09-17, 07:08:06,VALID,918.456,VALID,0.0,VALID,92.873,VALID,209.018,VALID,20.457,VALID,57.0,VALID,0.324,
2017-09-17, 07:09:06,VALID,918.47,VALID,0.0,VALID,91.445,VALID,211.852,VALID,20.532,VALID,41.0,VALID,0.612,
2017-09-17, 07:10:06,VALID,918.484,VALID,0.0,VALID,91.819,VALID,212.934,VALID,20.592,VALID,41.0,VALID,0.329,
2017-09-17, 07:11:06,VALID,918.5,VALID,0.0,VALID,91.846,VALID,215.548,VALID,20.691,VALID,41.0,VALID,0.345,
2017-09-17, 07:12:06,VALID,918.504,VALID,0.0,VALID,91.471,VALID,221.105,VALID,20.801,VALID,46.0,VALID,0.474,
2017-09-17, 07:13:06,VALID,918.513,VALID,0.0,VALID,90.792,VALID,226.625,VALID,20.899,VALID,19.0,VALID,0.239,
2017-09-17, 07:14:06,VALID,918.503,VALID,0.0,VALID,90.731,VALID,231.471,VALID,20.998,VALID,20.0,VALID,0.07,
2017-09-17, 07:15:06,VALID,918.518,VALID,0.0,VALID,90.374,VALID,236.079,VALID,21.13,VALID,16.0,VALID,0.098,
2017-09-17, 07:16:06,VALID,918.539,VALID,0.0,VALID,89.695,VALID,239.244,VALID,21.271,VALID,339.0,VALID,0.252,
2017-09-17, 07:17:06,VALID,918.568,VALID,0.0,VALID,89.462,VALID,242.094,VALID,21.357,VALID,352.0,VALID,0.299,
2017-09-17, 07:18:06,VALID,918.589,VALID,0.0,VALID,89.706,VALID,245.19,VALID,21.449,VALID,18.0,VALID,0.281,
2017-09-17, 07:19:06,VALID,918.621,VALID,0.0,VALID,89.483,VALID,248.256,VALID,21.568,VALID,6.0,VALID,0.333,
2017-09-17, 07:20:06,VALID,918.651,VALID,0.0,VALID,88.671,VALID,251.832,VALID,21.666,VALID,24.0,VALID,0.268,
2017-09-17, 07:21:06,VALID,918.664,VALID,0.0,VALID,88.1,VALID,254.693,VALID,21.783,VALID,37.0,VALID,0.579,
2017-09-17, 07:22:06,VALID,918.688,VALID,0.0,VALID,87.123,VALID,257.614,VALID,21.91,VALID,20.0,VALID,0.343,
2017-09-17, 07:23:06,VALID,918.716,VALID,0.0,VALID,86.776,VALID,259.957,VALID,22.068,VALID,7.0,VALID,0.508,
2017-09-17, 07:24:06,VALID,918.745,VALID,0.0,VALID,85.741,VALID,261.14,VALID,22.192,VALID,28.0,VALID,0.605,
2017-09-17, 07:25:06,VALID,918.763,VALID,0.0,VALID,83.757,VALID,261.257,VALID,22.161,VALID,17.0,VALID,0.898,
2017-09-17, 07:26:06,VALID,918.782,VALID,0.0,VALID,83.686,VALID,262.61,VALID,22.089,VALID,344.0,VALID,0.596,
2017-09-17, 07:27:06,VALID,918.817,VALID,0.0,VALID,84.168,VALID,264.817,VALID,22.115,VALID,9.0,VALID,0.339,
2017-09-17, 07:28:06,VALID,918.839,VALID,0.0,VALID,84.855,VALID,268.273,VALID,22.164,VALID,340.0,VALID,0.679,
2017-09-17, 07:29:06,VALID,918.843,VALID,0.0,VALID,83.39,VALID,272.222,VALID,22.063,VALID,2.0,VALID,1.227,
2017-09-17, 07:30:06,VALID,918.875,VALID,0.0,VALID,84.593,VALID,276.035,VALID,21.832,VALID,358.0,VALID,0.969,
2017-09-17, 07:31:06,VALID,918.887,VALID,0.0,VALID,85.334,VALID,280.981,VALID,21.776,VALID,11.0,VALID,1.05,
2017-09-17, 07:32:06,VALID,918.928,VALID,0.0,VALID,85.954,VALID,283.859,VALID,21.76,VALID,10.0,VALID,1.464,
2017-09-17, 07:33:06,VALID,918.955,VALID,0.0,VALID,85.698,VALID,288.506,VALID,21.604,VALID,15.0,VALID,1.626,
2017-09-17, 07:34:06,VALID,918.988,VALID,0.0,VALID,86.513,VALID,292.82,VALID,21.447,VALID,9.0,VALID,1.482,
2017-09-17, 07:35:06,VALID,919.012,VALID,0.0,VALID,87.592,VALID,297.744,VALID,21.406,VALID,14.0,VALID,0.864,
2017-09-17, 07:36:06,VALID,919.02,VALID,0.0,VALID,88.294,VALID,301.458,VALID,21.53,VALID,21.0,VALID,0.735,
2017-09-17, 07:37:06,VALID,919.019,VALID,0.0,VALID,87.433,VALID,307.448,VALID,21.658,VALID,33.0,VALID,1.056,
2017-09-17, 07:38:06,VALID,919.038,VALID,0.0,VALID,86.554,VALID,312.957,VALID,21.673,VALID,50.0,VALID,1.266,
2017-09-17, 07:39:06,VALID,919.046,VALID,0.0,VALID,87.525,VALID,316.683,VALID,21.843,VALID,15.0,VALID,1.029,
2017-09-17, 07:40:06,VALID,919.069,VALID,0.0,VALID,85.288,VALID,320.355,VALID,21.975,VALID,38.0,VALID,0.944,
2017-09-17, 07:41:06,VALID,919.094,VALID,0.0,VALID,85.83,VALID,323.022,VALID,21.995,VALID,13.0,VALID,0.848,
2017-09-17, 07:42:06,VALID,919.108,VALID,0.0,VALID,85.268,VALID,323.976,VALID,22.069,VALID,355.0,VALID,1.038,
2017-09-17, 07:43:06,VALID,919.108,VALID,0.0,VALID,83.595,VALID,326.369,VALID,22.099,VALID,345.0,VALID,0.804,
2017-09-17, 07:44:06,VALID,919.112,VALID,0.0,VALID,83.994,VALID,328.588,VALID,22.135,VALID,329.0,VALID,0.481,
2017-09-17, 07:45:06,VALID,919.114,VALID,0.0,VALID,84.773,VALID,329.92,VALID,22.181,VALID,301.0,VALID,0.532,
2017-09-17, 07:46:06,VALID,919.129,VALID,0.0,VALID,84.268,VALID,330.696,VALID,22.236,VALID,313.0,VALID,0.249,
2017-09-17, 07:47:06,VALID,919.133,VALID,0.0,VALID,83.391,VALID,330.422,VALID,22.326,VALID,328.0,VALID,0.756,
2017-09-17, 07:48:06,VALID,919.131,VALID,0.0,VALID,82.32,VALID,331.702,VALID,22.296,VALID,21.0,VALID,1.171,
2017-09-17, 07:49:06,VALID,919.139,VALID,0.0,VALID,83.523,VALID,331.739,VALID,22.243,VALID,2.0,VALID,0.858,
2017-09-17, 07:50:06,VALID,919.164,VALID,0.0,VALID,83.002,VALID,332.777,VALID,22.351,VALID,357.0,VALID,0.238,
2017-09-17, 07:51:06,VALID,919.166,VALID,0.0,VALID,82.698,VALID,334.344,VALID,22.518,VALID,271.0,VALID,0.121,
2017-09-17, 07:52:06,VALID,919.176,VALID,0.0,VALID,82.507,VALID,335.654,VALID,22.621,VALID,333.0,VALID,0.062,
2017-09-17, 07:53:06,VALID,919.2,VALID,0.0,VALID,81.377,VALID,337.855,VALID,22.671,VALID,278.0,VALID,0.366,
2017-09-17, 07:54:06,VALID,919.193,VALID,0.0,VALID,81.831,VALID,341.615,VALID,22.562,VALID,241.0,VALID,0.25,
2017-09-17, 07:55:06,VALID,919.197,VALID,0.0,VALID,82.046,VALID,345.77,VALID,22.419,VALID,253.0,VALID,0.432,
2017-09-17, 07:56:06,VALID,919.199,VALID,0.0,VALID,83.92,VALID,349.284,VALID,22.31,VALID,285.0,VALID,0.324,
2017-09-17, 07:57:06,VALID,919.206,VALID,0.0,VALID,83.327,VALID,351.806,VALID,22.284,VALID,281.0,VALID,0.302,
2017-09-17, 07:58:06,VALID,919.213,VALID,0.0,VALID,82.836,VALID,354.238,VALID,22.288,VALID,292.0,VALID,0.53,
2017-09-17, 07:59:06,VALID,919.23,VALID,0.0,VALID,82.476,VALID,357.777,VALID,22.25,VALID,259.0,VALID,0.529,
2017-09-17, 08:00:06,VALID,919.253,VALID,0.0,VALID,82.851,VALID,361.108,VALID,22.176,VALID,290.0,VALID,0.567,
2017-09-17, 08:01:06,VALID,919.281,VALID,0.0,VALID,83.263,VALID,365.351,VALID,22.198,VALID,268.0,VALID,0.48,
2017-09-17, 08:02:06,VALID,919.314,VALID,0.0,VALID,83.004,VALID,370.538,VALID,22.227,VALID,282.0,VALID,0.466,
2017-09-17, 08:03:06,VALID,919.345,VALID,0.0,VALID,83.146,VALID,376.112,VALID,22.285,VALID,300.0,VALID,0.157,
2017-09-17, 08:04:06,VALID,919.371,VALID,0.0,VALID,83.408,VALID,379.219,VALID,22.455,VALID,1.0,VALID,0.364,
2017-09-17, 08:05:06,VALID,919.396,VALID,0.0,VALID,83.171,VALID,383.572,VALID,22.659,VALID,320.0,VALID,0.285,
2017-09-17, 08:06:06,VALID,919.41,VALID,0.0,VALID,81.27,VALID,388.168,VALID,22.726,VALID,277.0,VALID,0.57,
2017-09-17, 08:07:06,VALID,919.432,VALID,0.0,VALID,81.438,VALID,392.913,VALID,22.558,VALID,261.0,VALID,0.546,
